Date String (YYYY-MM-DD hh:mm:ss) UTC,Instrument flags,Ambient pressure (hPa),Sample flow (lpm),Bypass flow (lpm),Sample temperature (°C),Ambient temperature (°C),ASC tube jacket temperature (°C),LED temperature (°C),Box temperature (°C),Sample RH (%),Span deviation,Mass concentration (μg/m³),Mass concentration (μg/m³),Mass concentration (μg/m³)
DateTimeUTC,F1_M11,P_M11,Q1_M11,Q2_M11,T1_M11,T2_M11,T3_M11,T4_M11,T5_M11,U1_M11,ZSPAN_M11,X0_M11,X2_M11,X1_M11
2021-09-07 13:00:00,,0831.1,5.00,0.00,29.8,28.4,00.0,38.9,31.5,08.8,0001.4,0033.71,0024.60,0023.41
2021-09-07 13:01:00,,0831.2,5.00,0.00,29.8,28.5,00.0,38.9,31.5,08.9,0001.4,0033.56,0024.54,0023.34
2021-09-07 13:02:00,,0831.2,5.00,0.00,29.8,28.6,00.0,38.9,31.5,08.8,0001.0,0032.99,0024.45,0023.27
2021-09-07 13:03:00,,0831.2,5.00,0.00,29.8,28.7,00.0,38.9,31.6,08.6,0001.1,0032.91,0024.43,0023.26
2021-09-07 13:04:00,,0831.2,5.00,0.00,29.9,28.7,00.0,38.9,31.6,08.9,0001.1,0033.57,0024.41,0023.26
2021-09-07 13:05:00,,0831.2,5.00,0.00,29.9,28.8,00.0,38.9,31.6,08.9,0001.5,0034.06,0024.44,0023.27
2021-09-07 13:06:00,,0831.2,5.00,0.00,29.9,28.9,00.0,39.0,31.7,08.9,0001.7,0034.51,0024.45,0023.26
2021-09-07 13:07:00,,0831.3,5.00,0.00,29.9,28.9,00.0,39.0,31.7,09.0,0001.9,0034.83,0024.46,0023.26
2021-09-07 13:08:00,,0831.2,5.00,0.00,30.0,29.0,00.0,39.0,31.7,09.0,0001.7,0035.31,0024.39,0023.22
2021-09-07 13:09:00,,0831.3,5.01,0.00,30.0,29.0,00.0,39.0,31.7,09.0,0001.5,0035.27,0024.38,0023.21
2021-09-07 13:10:00,,0831.3,4.99,0.00,30.0,29.0,00.0,39.0,31.8,08.9,0001.6,0034.90,0024.37,0023.19
2021-09-07 13:11:00,,0831.3,5.01,0.00,30.0,29.1,00.0,39.0,31.8,08.9,0002.0,0034.36,0024.38,0023.22
2021-09-07 13:12:00,,0831.3,5.01,0.00,30.1,29.1,00.0,39.1,31.8,08.9,0002.1,0034.57,0024.38,0023.23
2021-09-07 13:13:00,,0831.4,5.00,0.00,30.1,29.2,00.0,39.1,31.9,08.9,0002.1,0035.79,0024.42,0023.24
2021-09-07 13:14:00,,0831.3,4.99,0.00,30.1,29.2,00.0,39.1,31.9,08.9,0001.5,0037.00,0024.45,0023.25
2021-09-07 13:15:00,,0831.4,5.00,0.00,30.1,29.3,00.0,39.1,31.9,08.9,0001.5,0036.66,0024.43,0023.22
2021-09-07 13:16:00,,0831.4,5.00,0.00,30.1,29.3,00.0,39.1,31.9,09.1,0001.3,0036.10,0024.28,0023.07
2021-09-07 13:17:00,,0831.4,5.00,0.00,30.2,29.3,00.0,39.2,32.0,08.9,0001.5,0036.28,0024.17,0022.94
2021-09-07 13:18:00,,0831.4,5.00,0.00,30.2,29.4,00.0,39.2,32.0,09.0,0001.6,0036.20,0024.05,0022.83
2021-09-07 13:19:00,,0831.4,5.00,0.00,30.2,29.4,00.0,39.2,32.0,09.0,0001.5,0035.97,0023.90,0022.67
2021-09-07 13:20:00,,0831.4,5.01,0.00,30.2,29.4,00.0,39.2,32.0,09.0,0001.5,0035.82,0023.76,0022.55
2021-09-07 13:21:00,,0831.5,5.00,0.00,30.2,28.5,00.0,39.2,31.8,08.9,0001.2,0035.58,0023.61,0022.38
2021-09-07 13:22:00,,0831.4,4.99,0.00,30.1,26.8,00.0,39.2,31.4,08.8,0001.0,0035.57,0023.55,0022.27
2021-09-07 13:23:00,,0831.4,5.00,0.00,30.0,26.8,00.0,39.2,31.4,08.8,0000.6,0035.12,0023.45,0022.17
2021-09-07 13:24:00,,0831.5,5.00,0.00,29.9,27.2,00.0,39.1,31.4,08.9,0000.2,0034.02,0023.33,0022.06
2021-09-07 13:25:00,,0831.5,5.01,0.00,29.9,27.5,00.0,39.1,31.4,09.0,0000.3,0033.61,0023.28,0021.95
2021-09-07 13:26:00,,0831.6,4.99,0.00,29.9,27.8,00.0,39.1,31.4,09.0,-000.0,0033.57,0023.24,0021.86
2021-09-07 13:27:00,,0831.5,5.02,0.00,29.9,28.1,00.0,39.1,31.5,09.0,-000.2,0033.49,0023.20,0021.86
2021-09-07 13:28:00,,0831.6,4.98,0.00,29.9,28.3,00.0,39.1,31.5,09.1,-000.2,0032.79,0023.16,0021.83
2021-09-07 13:29:00,,0831.7,5.02,0.00,29.9,28.5,00.0,39.0,31.6,09.2,-000.2,0032.37,0023.12,0021.82
2021-09-07 13:30:00,,0831.7,4.99,0.00,29.9,28.6,00.0,39.0,31.6,09.4,0000.1,0031.78,0023.11,0021.80
2021-09-07 13:31:00,,0831.7,5.00,0.00,30.0,28.7,00.0,39.0,31.7,09.5,0000.3,0031.94,0023.04,0021.73
2021-09-07 13:32:00,,0831.7,4.99,0.00,30.0,28.8,00.0,39.1,31.7,09.5,0000.7,0032.20,0022.99,0021.68
2021-09-07 13:33:00,,0831.7,5.00,0.00,30.0,28.9,00.0,39.1,31.7,09.4,0001.1,0032.82,0022.88,0021.57
2021-09-07 13:34:00,,0831.7,5.01,0.00,30.0,29.0,00.0,39.1,31.8,09.2,0001.9,0033.00,0022.72,0021.45
2021-09-07 13:35:00,,0831.7,5.01,0.00,30.0,29.0,00.0,39.1,31.8,09.1,0003.5,0032.80,0022.64,0021.35
2021-09-07 13:36:00,,0831.7,4.99,0.00,30.1,29.1,00.0,39.1,31.8,09.0,0003.5,0032.28,0022.43,0021.21
2021-09-07 13:37:00,,0831.7,4.99,0.00,30.1,29.1,00.0,39.1,31.9,09.0,0004.1,0031.77,0022.26,0021.13
2021-09-07 13:38:00,,0831.8,5.00,0.00,30.1,29.2,00.0,39.1,31.9,09.2,0004.1,0031.98,0022.21,0021.08
2021-09-07 13:39:00,,0831.8,5.00,0.00,30.1,29.2,00.0,39.2,31.9,09.2,0003.6,0032.53,0022.15,0021.05
2021-09-07 13:40:00,,0832.0,5.01,0.00,30.2,29.3,00.0,39.2,32.0,09.3,0003.5,0032.72,0022.15,0021.03
2021-09-07 13:41:00,,0832.0,4.99,0.00,30.2,29.3,00.0,39.2,32.0,09.3,0002.9,0032.91,0022.21,0021.05
2021-09-07 13:42:00,,0831.9,5.01,0.00,30.2,29.4,00.0,39.2,32.0,09.2,0002.4,0032.66,0022.29,0021.13
2021-09-07 13:43:00,,0832.0,5.01,0.00,30.3,29.4,00.0,39.2,32.0,09.9,0001.4,0032.11,0022.30,0021.18
2021-09-07 13:44:00,,0832.0,4.99,0.00,30.3,29.4,00.0,39.2,32.1,09.5,0000.9,0031.63,0022.39,0021.26
2021-09-07 13:45:00,,0831.9,4.99,0.00,30.3,29.3,00.0,39.3,32.0,09.1,0001.1,0031.61,0022.57,0021.39
2021-09-07 13:46:00,,0831.9,5.01,0.00,30.2,27.7,00.0,39.3,31.6,09.2,0001.0,0031.75,0022.68,0021.50
2021-09-07 13:47:00,,0831.9,5.00,0.00,30.0,26.1,00.0,39.2,31.2,09.7,0001.8,0032.66,0022.80,0021.58
2021-09-07 13:48:00,,0832.0,4.99,0.00,29.9,26.2,00.0,39.2,31.2,09.7,0001.8,0034.20,0022.94,0021.64
2021-09-07 13:49:00,,0832.1,5.01,0.00,29.8,26.7,00.0,39.1,31.2,10.0,0001.7,0034.11,0022.94,0021.66
2021-09-07 13:50:00,,0832.1,5.00,0.00,29.8,27.1,00.0,39.1,31.3,10.3,0002.1,0033.50,0022.92,0021.66
2021-09-07 13:51:00,,0832.1,5.00,0.00,29.8,27.5,00.0,39.0,31.3,10.5,0001.7,0033.59,0022.91,0021.65
2021-09-07 13:52:00,,0832.1,5.00,0.00,29.8,27.8,00.0,39.0,31.4,10.7,0001.9,0033.55,0022.86,0021.59
2021-09-07 13:53:00,,0832.1,5.00,0.00,29.8,28.0,00.0,39.0,31.4,11.0,0002.3,0033.67,0022.79,0021.53
2021-09-07 13:54:00,,0832.1,5.01,0.00,29.8,28.3,00.0,39.0,31.5,11.1,0002.9,0034.17,0022.79,0021.47
2021-09-07 13:55:00,,0832.2,5.01,0.00,29.8,28.4,00.0,39.0,31.5,11.4,0003.2,0034.34,0022.72,0021.41
2021-09-07 13:56:00,,0832.3,4.99,0.00,29.8,28.5,00.0,39.0,31.5,11.5,0003.0,0034.25,0022.57,0021.28
2021-09-07 13:57:00,,0832.3,5.00,0.00,29.9,28.7,00.0,39.0,31.6,11.5,0002.8,0034.03,0022.43,0021.15
2021-09-07 13:58:00,,0832.4,5.00,0.00,29.9,28.8,00.0,39.0,31.7,11.5,0002.3,0033.48,0022.41,0021.08
2021-09-07 13:59:00,,0832.3,5.01,0.00,29.9,28.9,00.0,39.0,31.7,11.5,0002.3,0032.37,0022.32,0021.00
